Regional Weather Roundup
Issued by NWS

Home | Current Version | Previous Version | Text Only | Print | Product List | Glossary Off
Versions: 1 2 3 4 5 6 7 8 9 10 11 12 13 14 15 16 17 18 19 20 21 22 23 24 25 26 27 28 29 30 31 32 33 34 35 36 37 38 39 40 41 42 43 44 45 46 47 48

000
ASUS45 KBOU 060507
RWRCO

WEATHER ROUNDUP FOR COLORADO
NATIONAL WEATHER SERVICE DENVER/BOULDER CO
1000 PM MST THU MAR 05 2015

NOTE: "FAIR" INDICATES FEW OR NO CLOUDS BELOW 12000 FEET WITH NO
SIGNIFICANT WEATHER AND/OR OBSTRUCTIONS TO VISIBILITY.

COZ001>005-013-030-031-060600-
...NORTHWEST COLORADO...

CITY           SKY/WX    TMP DP  RH WIND       PRES   REMARKS
CRAIG          NOT AVBL
HAYDEN         MOCLDY    19   7  58 SE8       30.38S WCI   9
MEEKER         PTCLDY    28  18  66 NE3       30.40R
MOUNT WERNER   NOT AVBL
STEAMBOAT SPGS MOCLDY    18   9  69 CALM      30.39R
WALDEN         PTCLDY    12   3  67 SE9       30.33S WCI   0
$$

COZ006>008-011-060600-
...WEST CENTRAL VALLEYS...

CITY           SKY/WX    TMP DP  RH WIND       PRES   REMARKS
GRAND JUNCTION PTCLDY    29  20  69 NE5       30.42R WCI  24
MONTROSE       PTCLDY    29  19  66 SE8       30.45R WCI  21
EAGLE          CLEAR     25  18  74 CALM      30.44R
RIFLE          CLEAR     28  19  69 SE5       30.43R WCI  23
DELTA          PTCLDY    32  22  67 E6        30.44R WCI  26
NUCLA          PTCLDY    30  21  69 E7        30.45R WCI  23
$$

COZ017>023-064>068-060600-
...SOUTHWEST COLORADO...

CITY           SKY/WX    TMP DP  RH WIND       PRES   REMARKS
DURANGO        CLEAR     24  16  71 CALM      30.38R
CORTEZ         CLEAR     27  21  78 NE8       30.41R WCI  19
PAGOSA SPRINGS CLEAR     17  10  73 CALM      30.40R
TELLURIDE      PTCLDY    21   8  57 SE6       30.43R WCI  13
WOLF CREEK PAS PTCLDY    18  -8  32 N7        30.42R WCI   8
$$

COZ009-010-012-014-032>034-037-058>063-060600-
...CENTRAL COLORADO...

CITY           SKY/WX    TMP DP  RH WIND       PRES   REMARKS
ASPEN          PTCLDY    19   9  65 SW8       30.40R WCI   9
BUENA VISTA    PTCLDY    28   7  41 NW16      30.33S WCI  16
COPPER MTN     PTCLDY    14   0  52 W17       30.36R WCI  -3
BERTHOUD PASS  NOT AVBL
COTTONWOOD PAS PTCLDY    28  -2  26 S5        30.33S WCI  23
GUNNISON       CLEAR     12   3  67 CALM      30.45R
KREMMLING      PTCLDY    16   9  73 CALM      30.41S
LEADVILLE      PTCLDY     6  -2  69 NE5       30.36R WCI  -3
SALIDA         PTCLDY    31  11  43 W7        30.42R WCI  24
SUNLIGHT       CLEAR     18  12  79 CALM        N/A
WILKERSON PASS PTCLDY    18   0  45 W10G20    30.33R WCI   6
$$

COZ069>075-060600-
...SAN LUIS VALLEY/SANGRE DE CRISTO MOUNTAINS...

CITY           SKY/WX    TMP DP  RH WIND       PRES   REMARKS
ALAMOSA        PTCLDY    21  16  81 CALM      30.38R
LA VETA PASS   PTCLDY    21   7  53 MISG      30.31R
SAGUACHE       PTCLDY    27  12  54 NW10      30.39R WCI  17
$$

COZ035-036-038>040-060600-
...NORTHERN COLORADO FRONT RANGE...

CITY           SKY/WX    TMP DP  RH WIND       PRES   REMARKS
DENVER INTL AP PTCLDY    28  19  69 S10       30.26S WCI  19
DMNS CITY PARK   N/A     27  19  70 S5        30.27S WCI  22
AURORA         PTCLDY    24  18  76 S9        30.27R WCI  15
FRONT RANGE AP NOT AVBL
ERIE MUNI ARPT PTCLDY    18  11  77 CALM      30.27S
BOULDER MUN AP PTCLDY    23  12  63 CALM      30.25S
CENTENNIAL     PTCLDY    28  17  63 S7        30.26S WCI  21
BROOMFIELD     MOCLDY    30  14  51 SW6       30.26S WCI  24
FORT COLLINS   PTCLDY    25  12  58 CALM      30.28S
LONGMONT       PTCLDY    19  11  69 CALM      30.29R
$$

COZ041-046-047-076>085-087-088-060600-
...PIKES PEAK/PALMER DIVIDE AND SOUTHERN FOOTHILLS...

CITY           SKY/WX    TMP DP  RH WIND       PRES   REMARKS
COLO. SPRINGS  PTCLDY    25  15  66 N7        30.29R WCI  17
A. F. ACADEMY  CLEAR     20  12  71 N5        30.28R WCI  13
ELLICOTT       NOT AVBL
FALCON         CLEAR     24  11  57 NW5       30.28S WCI  19
FORT CARSON    CLEAR     23  12  63 NW7       30.27S WCI  15
LIMON          PTCLDY     8   5  87 N6        30.29R WCI  -2
MONUMENT HILL  PTCLDY    25  10  54 W8        30.26S WCI  16
TRINIDAD       CLEAR     32  22  66 W9        30.28R WCI  24
$$

COZ042>045-048>051-090-091-060600-
...NORTHEAST COLORADO...

CITY           SKY/WX    TMP DP  RH WIND       PRES   REMARKS
GREELEY ARPT   PTCLDY    25  16  68 SW6       30.26S WCI  18
AKRON          CLEAR     27  17  66 SW8       30.26S WCI  19
BURLINGTON     CLEAR     26  19  74 W7        30.28S WCI  18
WRAY           CLEAR     28  19  71 W7        30.27S WCI  20
STERLING       CLEAR     27  19  74 SW5       30.26S WCI  21
HOLYOKE        CLEAR     27  19  74 W7        30.26R WCI  19
FORT MORGAN    CLEAR     24  19  82 W5        30.29R WCI  18
$$

COZ086-089-092>099-060600-
...SOUTHEAST COLORADO...

CITY           SKY/WX    TMP DP  RH WIND       PRES   REMARKS
PUEBLO         CLEAR     29  23  78 NW10      30.30R WCI  20
LA JUNTA       CLEAR     28  22  78 N9        30.28R WCI  19
LAMAR          CLEAR     27  20  75 CALM      30.27R
SPRINGFIELD      N/A     27  23  85 S9        30.27F WCI  18
$$



USA.gov is the U.S. government's official web portal to all federal, state and local government web resources and services.